STARLINK-4028

decayed
NORAD ID: 52677 Int'l Des: 2022-053 Owner: SPXS Country: US Constellation: starlink
LEOCIRCULAR
Gruppe

Über STARLINK-4028

Beschreibung wird geladen...

Höhenverlauf

Altitude vs Time

uPlot chart will show altitude changes over time

Zweizeiliger Elementsatz

1 52677U 22053X 25223.15946006 .10049013 12569-4 25543-3 0 9991
2 52677 53.2050 328.8665 0006665 307.4075 120.1220 16.45513961179524
Epoch: 11. Aug. 2025 • Age: 892 hours

Aktueller Status

Position data unavailable
Startdatum 18. Mai 2022
Alter 3.3 years
Verglühungsdatum 11. Aug. 2025
Typ internet

Technische Details

Klassifizierung Payload
Masse 297.00 kg
Trockenmasse 275.00 kg
Gesamtmasse 297.00 kg
Länge 0.20 m
Durchmesser 2.80 m
Spannweite 9.00 m
Form Box + pan
Hersteller SPXS
Bus-Typ Starlink
Phasenstatus Unknown Transfer Status
Besitzer/Staat SPXS/US

Große Konstellationen

Loading constellations...